Location: Bonaustraße
(48.4603°N, 11.9280°E)
Time: 03:06:55
(UTC+01:00)

Envisat - Pass Details

Date: 28 January 2021
Orbit: 764 x 766 km, 98.1° (Epoch: 05 March)

Event Time Altitude Azimuth Distance (km) Brightness Sun altitude
Rises 07:00:41 0° 7° (N) 3,245 6.1 -7.8°
Reaches altitude 10° 07:03:09 10° 358° (N) 2,314 5.3 -7.4°
Maximum altitude 07:07:44 35° 295° (WNW) 1,231 3.6 -6.7°
Drops below altitude 10° 07:12:17 10° 231° (SW) 2,298 5.2 -6.0°
Sets 07:14:44 0° 222° (SW) 3,220 6.0 -5.6°
